Burlington, VT

3:43 PM EDT on October 22, 2017 (GMT -0400)
Burlington International

Weather History for KBTV - March, 2013

Change the Weather History Date:

Tuesday, March 19, 2013

  Actual Average Record
Temperature  
Mean Temperature 31 °F 32 °F  
Max Temperature 33 °F 41 °F 79 °F (2012)
Min Temperature 28 °F 23 °F -10 °F (1993)
Degree Days  
Heating Degree Days 34 33  
Month to date heating degree days 640 693  
Since 1 July heating degree days 5518 6103  
Cooling Degree Days 0 0  
Month to date cooling degree days 0 0  
Year to date cooling degree days 0 0  
Moisture  
Dew Point 27 °F    
Average Humidity 89    
Maximum Humidity 92    
Minimum Humidity 85    
Precipitation  
Precipitation 0.54 in 0.07 in 0.73 in (2008)
Month to date precipitation 1.91 1.31  
Year to date precipitation 4.34 5.13  
Snow  
Snow 8.90 in 0.50 in 8.90 in (2013)
Month to date snowfall 15.3 11.2  
Since 1 July snowfall 81.0 72.0  
Snow Depth 0.00 in    
Sea Level Pressure  
Sea Level Pressure 29.85 in    
Wind  
Wind Speed 4 mph (South)    
Max Wind Speed 15 mph    
Max Gust Speed 20 mph    
Visibility 2 miles    
Events Fog , Snow    
T = Trace of Precipitation, MM = Missing Value Source: NWS Daily Summary

Daily Weather History Graph

Daily Weather History Graph

Search for Another Location

Airport or City:

Trip Planner

Search our weather history database for the weather conditions in past years. The results will help you decide how hot, cold, wet, or windy it might be!

Date:

Astronomy

Mar. 19, 2013 Rise Set
Actual Time 6:57 AM EDT 7:04 PM EDT
Civil Twilight 6:28 AM EDT 7:33 PM EDT
Nautical Twilight 5:54 AM EDT 8:07 PM EDT
Astronomical Twilight 5:19 AM EDT 8:42 PM EDT
Moon 11:32 AM EDT (3/19) 2:01 AM EDT (3/19)
Length of Visible Light 13h 04m
Length of Day
12h 06m
Waxing Crescent, 49% of the Moon is Illuminated
Mar 19
Waxing Crescent
Mar 19
First Quarter
Mar 27
Full
Apr 3
Last Quarter
Apr 10
New

Hourly Weather History & Observations

Time (EDT) Temp. Windchill Dew Point Humidity Pressure Visibility Wind Dir Wind Speed Gust Speed Precip Events Conditions
12:27 AM 28.4 °F 18.5 °F 21.2 °F 74% 30.08 in 2.5 mi South 11.5 mph - 0.00 in Snow Light Snow
12:45 AM 28.4 °F 19.1 °F 23.0 °F 80% 30.07 in 3.0 mi South 10.4 mph 16.1 mph 0.00 in Snow Light Snow
12:54 AM 28.9 °F 21.9 °F 23.0 °F 78% 30.08 in 4.0 mi SSE 6.9 mph - 0.01 in Snow Light Snow
1:44 AM 28.4 °F 21.2 °F 24.8 °F 86% 30.04 in 2.0 mi South 6.9 mph - 0.01 in Snow Light Snow
1:54 AM 28.0 °F 21.7 °F 24.1 °F 85% 30.05 in 3.0 mi South 5.8 mph - 0.01 in Snow Light Snow
2:13 AM 28.4 °F 22.2 °F 24.8 °F 86% 30.03 in 1.8 mi South 5.8 mph - 0.00 in Snow Light Snow
2:24 AM 28.4 °F 23.3 °F 24.8 °F 86% 30.02 in 1.2 mi South 4.6 mph - 0.01 in Snow Light Snow
2:38 AM 28.4 °F 23.3 °F 24.8 °F 86% 30.02 in 1.0 mi South 4.6 mph - 0.02 in Snow Light Snow
2:54 AM 28.0 °F 24.2 °F 25.0 °F 88% 30.02 in 1.0 mi South 3.5 mph - 0.03 in Snow Light Snow
3:22 AM 28.4 °F 21.2 °F 24.8 °F 86% 29.98 in 1.5 mi SSE 6.9 mph - 0.02 in Snow Light Snow
3:30 AM 28.4 °F 23.3 °F 24.8 °F 86% 29.98 in 2.5 mi South 4.6 mph - 0.02 in Snow Light Snow
3:40 AM 28.4 °F 22.2 °F 24.8 °F 86% 29.98 in 1.2 mi South 5.8 mph - 0.02 in Snow Light Snow
3:54 AM 28.0 °F 21.7 °F 24.1 °F 85% 29.99 in 1.0 mi South 5.8 mph - 0.03 in Snow Light Snow
4:06 AM 28.4 °F 24.6 °F 24.8 °F 86% 29.97 in 0.8 mi South 3.5 mph - 0.01 in Snow Light Snow
4:15 AM 28.4 °F 23.3 °F 24.8 °F 86% 29.97 in 0.5 mi South 4.6 mph - 0.02 in Fog , Snow Snow
4:26 AM 28.4 °F 22.2 °F 24.8 °F 86% 29.96 in 0.5 mi South 5.8 mph - 0.04 in Fog , Snow Snow
4:42 AM 28.4 °F 18.5 °F 24.8 °F 86% 29.95 in 0.5 mi SSE 11.5 mph - 0.08 in Fog , Snow Snow
4:54 AM 28.0 °F 18.6 °F 25.0 °F 88% 29.96 in 1.0 mi South 10.4 mph - 0.10 in Snow Light Snow
5:00 AM 28.4 °F 18.0 °F 24.8 °F 86% 29.95 in 1.5 mi SSE 12.7 mph - 0.00 in Snow Light Snow
5:11 AM 28.4 °F 17.5 °F 24.8 °F 86% 29.95 in 1.2 mi South 13.8 mph 19.6 mph 0.00 in Snow Light Snow
5:26 AM 28.4 °F 19.1 °F 24.8 °F 86% 29.94 in 1.5 mi South 10.4 mph 16.1 mph 0.01 in Snow Light Snow
5:40 AM 28.4 °F 20.4 °F 24.8 °F 86% 29.94 in 1.5 mi South 8.1 mph - 0.02 in Snow Light Snow
5:54 AM 28.0 °F 21.7 °F 25.0 °F 88% 29.95 in 1.8 mi South 5.8 mph - 0.02 in Snow Light Snow
6:28 AM 28.4 °F 22.2 °F 24.8 °F 86% 29.92 in 2.5 mi South 5.8 mph - 0.01 in Snow Light Snow
6:50 AM 28.4 °F 23.3 °F 24.8 °F 86% 29.92 in 1.5 mi South 4.6 mph - 0.02 in Snow Light Snow
6:54 AM 28.0 °F 24.2 °F 25.0 °F 88% 29.94 in 1.2 mi South 3.5 mph - 0.02 in Snow Light Snow
7:14 AM 28.4 °F 23.3 °F 24.8 °F 86% 29.91 in 2.0 mi SSW 4.6 mph - 0.01 in Snow Light Snow
7:21 AM 28.4 °F 23.3 °F 24.8 °F 86% 29.91 in 3.0 mi SSW 4.6 mph - 0.01 in Snow Light Snow
7:33 AM 28.4 °F 23.3 °F 24.8 °F 86% 29.90 in 2.0 mi South 4.6 mph - 0.01 in Snow Light Snow
7:54 AM 28.0 °F 22.8 °F 24.1 °F 85% 29.91 in 8.0 mi SSW 4.6 mph - 0.01 in   Overcast
8:54 AM 28.9 °F 21.9 °F 25.0 °F 85% 29.89 in 9.0 mi SW 6.9 mph - 0.00 in Snow Light Snow
9:47 AM 30.2 °F 25.4 °F 24.8 °F 80% 29.87 in 4.0 mi WSW 4.6 mph - 0.00 in Snow Light Snow
9:54 AM 30.0 °F 26.5 °F 26.1 °F 85% 29.88 in 3.0 mi SW 3.5 mph - 0.00 in Snow Light Snow
10:00 AM 30.2 °F 25.4 °F 24.8 °F 80% 29.87 in 1.2 mi SW 4.6 mph - 0.00 in Snow Light Snow
10:15 AM 28.4 °F - 26.6 °F 93% 29.87 in 0.2 mi Calm Calm - 0.00 in Fog , Snow Heavy Snow
10:29 AM 30.2 °F - 26.6 °F 86% 29.86 in 0.5 mi Calm Calm - 0.02 in Fog , Snow Snow
10:54 AM 30.0 °F 25.2 °F 27.0 °F 88% 29.87 in 0.8 mi South 4.6 mph - 0.04 in Snow Light Snow
11:13 AM 30.2 °F 24.3 °F 26.6 °F 86% 29.86 in 1.0 mi South 5.8 mph - 0.01 in Snow Light Snow
11:20 AM 30.2 °F 25.4 °F 28.4 °F 93% 29.86 in 0.5 mi South 4.6 mph - 0.01 in Fog , Snow Snow
11:40 AM 30.2 °F 26.7 °F 28.4 °F 93% 29.85 in 0.8 mi SSE 3.5 mph - 0.03 in Snow Light Snow
11:54 AM 30.9 °F 27.5 °F 28.0 °F 89% 29.86 in 0.5 mi SSE 3.5 mph - 0.04 in Fog , Snow Snow
12:04 PM 30.2 °F 25.4 °F 28.4 °F 93% 29.83 in 0.8 mi SSE 4.6 mph - 0.00 in Snow Light Snow
12:26 PM 30.2 °F 24.3 °F 28.4 °F 93% 29.83 in 0.2 mi South 5.8 mph - 0.02 in Fog , Snow Heavy Snow
12:50 PM 30.2 °F 25.4 °F 28.4 °F 93% 29.83 in 0.5 mi SSE 4.6 mph - 0.05 in Fog , Snow Snow
12:51 PM 30.9 °F 26.2 °F 28.0 °F 89% 29.84 in 0.5 mi SSE 4.6 mph - 0.05 in Fog , Snow Snow
1:02 PM 30.2 °F 25.4 °F 28.4 °F 93% 29.82 in 0.8 mi SE 4.6 mph - 0.01 in Snow Light Snow
1:09 PM 30.2 °F - 28.4 °F 93% 29.81 in 1.0 mi Calm Calm - 0.01 in Snow Light Snow
1:14 PM 30.2 °F - 28.4 °F 93% 29.81 in 1.5 mi Calm Calm - 0.02 in Snow Light Snow
1:27 PM 32.0 °F - 30.2 °F 93% 29.80 in 1.2 mi Calm Calm - 0.02 in Snow Light Snow
1:52 PM 30.2 °F - 28.4 °F 93% 29.79 in 1.5 mi Calm Calm - 0.03 in Snow Light Snow
1:54 PM 30.9 °F - 28.9 °F 92% 29.80 in 1.5 mi Calm Calm - 0.03 in Snow Light Snow
2:04 PM 32.0 °F - 28.4 °F 87% 29.77 in 1.2 mi Calm Calm - 0.00 in Snow Light Snow
2:24 PM 32.0 °F - 28.4 °F 87% 29.77 in 1.2 mi Calm Calm - 0.00 in Snow Light Snow
2:31 PM 32.0 °F - 28.4 °F 87% 29.77 in 1.0 mi Calm Calm - 0.01 in Snow Light Snow
2:37 PM 32.0 °F - 28.4 °F 87% 29.77 in 0.8 mi Calm Calm - 0.01 in Snow Light Snow
2:44 PM 32.0 °F 28.7 °F 28.4 °F 87% 29.77 in 0.8 mi ESE 3.5 mph - 0.01 in Snow Light Snow
2:54 PM 30.9 °F 26.2 °F 28.0 °F 89% 29.78 in 0.5 mi East 4.6 mph - 0.02 in Fog , Snow Snow
3:08 PM 30.2 °F - 28.4 °F 93% 29.76 in 0.8 mi Calm Calm - 0.01 in Snow Light Snow
3:12 PM 32.0 °F - 28.4 °F 87% 29.75 in 1.2 mi Calm Calm - 0.01 in Snow Light Snow
3:17 PM 32.0 °F - 28.4 °F 87% 29.75 in 2.0 mi Calm Calm - 0.01 in Snow Light Snow
3:27 PM 32.0 °F 28.7 °F 28.4 °F 87% 29.74 in 6.0 mi ENE 3.5 mph - 0.01 in Snow Light Snow
3:36 PM 32.0 °F - 28.4 °F 87% 29.75 in 10.0 mi Calm Calm - 0.01 in   Overcast
3:54 PM 32.0 °F 28.7 °F 28.0 °F 85% 29.75 in 10.0 mi NNE 3.5 mph - 0.01 in   Overcast
4:54 PM 32.0 °F 28.7 °F 28.0 °F 85% 29.75 in 9.0 mi West 3.5 mph - 0.00 in Snow Light Snow
5:14 PM 32.0 °F 28.7 °F 28.4 °F 87% 29.74 in 2.0 mi West 3.5 mph - 0.01 in Snow Light Snow
5:20 PM 32.0 °F - 28.4 °F 87% 29.74 in 1.2 mi Calm Calm - 0.01 in Snow Light Snow
5:54 PM 32.0 °F - 28.0 °F 85% 29.75 in 1.0 mi Calm Calm - 0.02 in Snow Light Snow
6:02 PM 32.0 °F - 28.4 °F 87% 29.74 in 0.5 mi Calm Calm - 0.00 in Fog , Snow Snow
6:21 PM 30.2 °F 26.7 °F 28.4 °F 93% 29.73 in 1.0 mi East 3.5 mph - 0.02 in Snow Light Snow
6:35 PM 30.2 °F 26.7 °F 28.4 °F 93% 29.73 in 1.8 mi ESE 3.5 mph - 0.02 in Snow Light Snow
6:54 PM 30.9 °F - 28.0 °F 89% 29.75 in 1.2 mi Calm Calm - 0.02 in Snow Light Snow
7:45 PM 30.2 °F - 28.4 °F 93% 29.73 in 2.5 mi Calm Calm - 0.01 in Snow Light Snow
7:54 PM 30.0 °F 26.5 °F 28.0 °F 92% 29.75 in 3.0 mi SE 3.5 mph - 0.01 in Snow Light Snow
8:20 PM 30.2 °F 26.7 °F 28.4 °F 93% 29.73 in 2.0 mi SE 3.5 mph - 0.00 in Snow Light Snow
8:33 PM 30.2 °F 26.7 °F 28.4 °F 93% 29.73 in 2.0 mi SE 3.5 mph - 0.00 in Snow Light Snow
8:54 PM 30.0 °F 26.5 °F 28.0 °F 92% 29.75 in 2.5 mi ESE 3.5 mph - 0.00 in Snow Light Snow
9:26 PM 30.2 °F - 28.4 °F 93% 29.74 in 3.0 mi Calm Calm - 0.00 in Snow Light Snow
9:33 PM 30.2 °F - 28.4 °F 93% 29.74 in 1.5 mi Calm Calm - 0.01 in Snow Light Snow
9:40 PM 30.2 °F - 28.4 °F 93% 29.74 in 0.8 mi Calm Calm - 0.01 in Snow Light Snow
9:52 PM 30.2 °F - 28.4 °F 93% 29.75 in 1.0 mi Calm Calm - 0.02 in Snow Light Snow
9:54 PM 30.9 °F - 28.0 °F 89% 29.76 in 1.0 mi Calm Calm - 0.02 in Snow Light Snow
10:01 PM 30.2 °F - 28.4 °F 93% 29.74 in 0.8 mi Calm Calm - 0.01 in Snow Light Snow
10:08 PM 30.2 °F 21.9 °F 28.4 °F 93% 29.74 in 1.2 mi SSW 9.2 mph - 0.01 in Snow Light Snow
10:19 PM 30.2 °F 23.4 °F 28.4 °F 93% 29.74 in 1.2 mi SSW 6.9 mph - 0.01 in Snow Light Snow
10:43 PM 30.2 °F 25.4 °F 28.4 °F 93% 29.74 in 1.2 mi SSW 4.6 mph - 0.02 in Snow Light Snow
10:54 PM 30.0 °F 26.5 °F 27.0 °F 88% 29.75 in 1.5 mi SSW 3.5 mph - 0.03 in Snow Light Snow
10:56 PM 30.2 °F - 28.4 °F 93% 29.74 in 1.2 mi Calm Calm - 0.00 in Snow Light Snow
11:35 PM 30.2 °F - 28.4 °F 93% 29.73 in 0.8 mi Calm Calm - 0.02 in Snow Light Snow
11:43 PM 30.2 °F 26.7 °F 28.4 °F 93% 29.73 in 1.0 mi NNW 3.5 mph - 0.03 in Snow Light Snow
11:54 PM 30.0 °F - 28.0 °F 92% 29.74 in 1.2 mi Calm Calm - 0.03 in Snow Light Snow
11:57 PM 30.2 °F - 28.4 °F 93% 29.72 in 1.8 mi Calm Calm - 0.00 in Snow Light Snow